Flag for India Weather past 2 weeks in Panipat, Haryana, India

Now
48 °F

Fog.


Feels Like: 46 °F
Forecast: 44 / 68 °F
Wind: 6 mph from West

Location: New Delhi Palam Airport

Current Time: Dec 20, 2014 at 10:09:25 PM

Latest Report: Dec 20, 2014 at 9:30 PM


Visibility: 1 mi

Pressure: 30.04 "Hg

Humidity: 94%

Dew point: 46 °F

Location of PanipatLocation

Historic Weather in Panipat — Graph

°F

Panipat temperature yesterday

Maximum temperature yesterday: 57 °F (at 1:30 PM)
Minimum temperature yesterday: 46 °F (at 1:00 AM)
Average temperature yesterday: 51 °F

Past Weeks' High & Low Weather Summary

 TemperatureHumidityPressure
High81 °F (Dec 7, 3:00 PM)100% (Dec 10, 7:00 AM)30.24 "Hg (Dec 10, 7:00 AM)
Low43 °F (Dec 18, 5:00 AM)14% (Dec 10, 2:30 PM)29.92 "Hg (Dec 8, 4:30 PM)
Average57 °F72%30.06 "Hg
* Reported Dec 5 8:30 PM — Dec 20 8:30 PM, Panipat, Weather by CustomWeather, © 2014

Note: Actual official high and low records may vary slightly from our data, if they occured in-between our weather recording intervals... More about our weather records

Advertising

Panipat weather history for previous 24 hours

 ConditionsComfort  
Time TempWeatherWind HumidityBarometerVisibility
8:30 PM
Dec 20
48 °FFog.6 mph94%30.04 "Hg1 mi
8:00 PM50 °FFog.6 mph94%30.04 "Hg1 mi
7:00 PM54 °FFog.8 mph82%30.04 "Hg1 mi
6:30 PM54 °FFog.7 mph82%30.04 "Hg1 mi
6:00 PM55 °FFog.7 mph77%30.01 "Hg1 mi
5:30 PM57 °FHaze.7 mph72%30.01 "Hg1 mi
5:00 PM59 °FHaze.9 mph63%30.01 "Hg2 mi
4:30 PM61 °FHaze.9 mph63%30.04 "Hg2 mi
3:00 PM59 °FHaze.9 mph68%30.04 "Hg1 mi
2:30 PM59 °FHaze.7 mph72%30.04 "Hg1 mi
2:00 PM57 °FFog.10 mph82%30.07 "Hg1 mi
1:30 PM55 °FFog.7 mph88%30.07 "Hg1 mi
1:00 PM54 °FFog.8 mph88%30.09 "Hg1 mi
12:30 PM54 °FFog.9 mph82%30.12 "Hg1 mi
12:00 PM54 °FFog.9 mph82%30.12 "Hg1 mi
11:00 AM50 °FFog.7 mph94%30.15 "Hg1 mi
10:30 AM50 °FFog.6 mph94%30.15 "Hg1 mi
10:00 AM48 °FFog.7 mph100%30.18 "Hg1 mi
9:30 AM46 °FFog.7 mph100%30.18 "Hg1 mi
9:00 AM46 °FFog.8 mph100%30.15 "Hg1 mi
7:00 AM48 °FFog.7 mph100%30.12 "Hg1 mi
6:30 AM48 °FFog.8 mph100%30.12 "Hg1 mi
6:00 AM48 °FFog.6 mph100%30.12 "Hg1 mi
5:30 AM48 °FFog.7 mph100%30.12 "Hg1 mi
4:30 AM48 °FFog.8 mph100%30.12 "Hg1 mi
4:00 AM48 °FFog.9 mph100%30.12 "Hg1 mi
3:30 AM48 °FFog.8 mph100%30.12 "Hg1 mi
3:00 AM46 °FDense fog.6 mph100%30.12 "Hg0 mi
2:30 AM46 °FDense fog.6 mph100%30.12 "Hg0 mi
2:00 AM46 °FDense fog.3 mph100%30.12 "Hg0 mi
1:30 AM46 °FFog.3 mph100%30.12 "Hg0 mi
1:00 AM46 °FFog.No wind100%30.12 "Hg0 mi
12:30 AM48 °FFog.No wind100%30.15 "Hg0 mi
12:00 AM48 °FFog.No wind100%30.15 "Hg0 mi
11:30 PM
Dec 19
50 °FFog.No wind100%30.15 "Hg0 mi
11:00 PM50 °FFog.5 mph100%30.15 "Hg0 mi
10:30 PM50 °FFog.No wind100%30.18 "Hg0 mi
10:00 PM50 °FFog.No wind100%30.18 "Hg0 mi
Weather by CustomWeather, © 2014

See weather overviewHow to use our weather pages